Simultaneous Nadir Overpasses (SNOs) Predictions

Prediction of SNOs between METOP-B and NOAA-19 Satellite Orbit:

Table of predicted SNOs for the next 14.0 days since TLE Epoch: 12/21/2018
Index Date (METOP-B) Time (METOP-B) Lat,Lon (METOP-B) SZA (METOP-B ) Date (NOAA-19) Time (NOAA-19) Lat,Lon (NOAA-19) SZA (NOAA-19 ) Distance(km) Time Diff (sec)
1 12/30/2018 21:28:05 78.89,-128.83 102.20 12/30/2018 21:27:03 78.91,-128.91 102.20 2.51 62
2 12/30/2018 22:18:47 -78.87, 38.38 77.83 12/30/2018 22:17:59 -78.91, 38.34 77.81 3.94 48
3 12/30/2018 23:09:27 78.88,-154.26 102.18 12/30/2018 23:09:03 78.87,-154.17 102.17 1.94 24
4 12/31/2018 00:00:08 -78.86, 12.96 77.85 12/30/2018 23:59:58 -78.88, 13.09 77.83 3.26 10
5 12/31/2018 00:50:48 78.87,-179.68 102.16 12/31/2018 00:51:03 78.88,-179.68 102.17 1.18 15
6 12/31/2018 01:41:30 -78.85, -12.47 77.87 12/31/2018 01:41:59 -78.88, -12.42 77.84 3.35 29
7 12/31/2018 02:32:10 78.85, 154.89 102.13 12/31/2018 02:33:04 78.88, 154.81 102.16 3.21 54
8 12/31/2018 03:22:51 -78.87, -37.65 77.85 12/31/2018 03:23:59 -78.84, -37.67 77.87 3.13 68




NCC Satellite Simultaneous Nadir Overpasses (SNOs) Prediction Service
